Skip Page Navigation
NASA JPL Caltech
NASA Logo - Jet Propulsion Laboratory + View the NASA Portal
+ Center for Near-Earth Object Studies
JPL Home Earth Solar System Stars & Galaxies Technology
JPL Solar System Dynamics
BODIES ORBITS EPHEMERIDES TOOLS PHYSICAL DATA DISCOVERY FAQ SITE MAP
JPL Small-Body Database Browser
Search: [ help ]  
437711 (2014 DU88)
Classification: Main-belt Asteroid          SPK-ID: 2437711
Ephemeris | Orbit Diagram | Orbital Elements | Mission Design | Physical Parameters | Discovery Circumstances ]

[ show orbit diagram ]
Orbital Elements at Epoch 2459000.5 (2020-May-31.0) TDB
Reference: JPL 13 (heliocentric ecliptic J2000)
 Element Value Uncertainty (1-sigma)   Units 
e .1292659326526699 5.2768e-08  
a 2.544410254966266 3.1595e-08 au
q 2.215504690307034 1.3772e-07 au
i 15.23482541053157 7.1358e-06 deg
node 158.3311851561386 1.9188e-05 deg
peri 244.8813927689783 3.3731e-05 deg
M 289.3622084031496 3.0676e-05 deg
tp 2459291.379922030919
(2021-Mar-17.87992203)
0.00012914 TDB
period 1482.446854068976
4.06
2.7613e-05
7.56e-08
d
yr
n .242841757876097 4.5233e-09 deg/d
Q 2.873315819625498 3.568e-08 au
  Orbit Determination Parameters
   # obs. used (total)      136  
   data-arc span      5237 days (14.34 yr)  
   first obs. used      2006-01-26  
   last obs. used      2020-05-29  
   planetary ephem.      DE431  
   SB-pert. ephem.      SB431-N16  
   condition code      0  
   norm. resid. RMS      .65165  
   source      ORB  
   producer      Otto Matic  
   solution date      2020-Jun-24 07:14:38  

Additional Information
 Earth MOID = 1.26505 au 
 Jupiter MOID = 2.60013 au 
 T_jup = 3.383 
[ show covariance matrix ]

Ephemeris | Orbit Diagram | Orbital Elements | Mission Design | Physical Parameters | Discovery Circumstances ]

Physical Parameter Table
Parameter Symbol Value Units Sigma Reference Notes
absolute magnitude H 16.9   n/a MPO437698  

437711 (2014 DU88)          Discovered 2006-Jan-26 by Spacewatch at Kitt Peak
Reference: Last Updated: 2015-06-04
Ephemeris | Orbit Diagram | Orbital Elements | Mission Design | Physical Parameters | Discovery Circumstances ]
ABOUT SSD CREDITS/AWARDS PRIVACY/COPYRIGHT GLOSSARY LINKS
FirstGov 2020-Aug-06 14:41 UT
(server date/time)  
NASA Home Page
Site Manager:   Ryan S. Park
Webmaster  Alan B. Chamberlin